Theta_e
298 291 289 288 291 293 294 294 295 295 294 294 293 292 290 289 290 292 294 293 294 293 290 292 292 291 293 294 295 294 293 293 292 293 293 293 293 293 293 293 293 293 292 293 294 295 295 295 296 297 297 299 303 304 304 305 305 306 306 305 304 305 305 304 303 302 301 299 298 297 296 294 294 294 294 294 294 294 294 294 294 294 294 295 295 295
298 291 290 293 295 295 295 296 295 294 294 293 291 290 289 290 290 293 295 295 294 293 288 290 290 291 293 295 296 293 292 292 293 293 293 293 294 294 293 293 292 292 292 293 293 294 294 294 295 296 297 298 300 301 303 304 305 305 304 303 303 303 303 304 303 301 300 300 298 295 293 293 293 293 292 291 291 292 292 291 291 292 292 292 292 292
291 290 292 296 297 296 296 295 294 294 293 292 290 288 289 288 291 293 294 294 294 294 289 289 290 292 294 295 296 294 292 294 295 295 295 294 294 293 293 293 291 290 291 292 293 293 294 294 295 295 296 296 298 300 301 302 303 302 302 301 301 300 300 300 300 299 297 297 296 294 292 292 291 291 290 289 289 289 289 289 289 290 290 290 290 290
289 289 295 298 296 296 295 295 294 293 292 292 289 288 286 287 291 286 291 292 293 293 288 289 289 292 294 295 296 298 296 295 296 296 295 295 295 294 294 293 292 291 290 291 292 292 293 294 294 294 295 295 297 298 299 301 300 300 299 299 298 297 296 297 297 296 295 295 294 294 292 291 290 288 289 288 288 288 288 287 288 288 288 289 288 288
292 294 297 297 296 296 294 293 293 292 290 288 291 289 288 290 291 291 291 291 291 291 292 290 290 291 293 293 294 297 297 297 297 294 293 294 295 295 295 294 293 292 291 291 291 292 293 293 294 294 294 295 296 296 297 298 299 299 298 297 297 296 295 295 295 295 294 293 292 291 291 290 289 288 287 286 285 286 287 286 286 286 287 288 288 288
293 297 298 295 294 294 294 291 292 292 288 288 290 292 292 292 292 291 292 292 285 285 289 290 282 282 285 290 292 295 291 294 295 293 293 294 295 293 293 293 293 293 292 292 292 292 293 293 293 293 293 294 294 294 295 296 298 297 296 295 295 295 294 294 294 294 294 292 291 289 288 287 286 285 285 284 284 284 284 285 285 286 286 286 286 286
294 296 298 296 294 292 293 292 291 293 289 288 288 293 293 293 292 292 291 290 282 282 289 291 284 283 288 292 294 294 293 295 292 291 294 293 294 293 294 293 293 292 291 291 292 292 292 293 293 293 293 293 293 293 293 295 296 296 295 295 296 295 294 294 294 293 293 292 291 290 288 287 286 284 284 284 284 284 284 285 284 285 285 285 285 285
294 294 295 294 293 292 290 290 293 294 290 285 290 293 292 291 291 290 291 290 284 285 289 289 286 283 286 292 294 295 295 296 296 294 292 293 293 293 293 293 292 292 291 291 291 292 293 293 293 293 293 293 293 292 293 295 295 295 295 295 296 295 294 294 294 293 293 292 290 288 287 286 285 284 284 284 284 284 284 284 284 284 284 284 284 284
293 291 293 292 292 291 290 291 293 294 291 288 294 293 293 292 291 290 289 287 286 286 284 284 288 285 283 286 291 293 291 292 294 295 294 294 293 292 292 292 292 292 291 291 291 292 292 292 293 293 292 292 291 291 293 294 294 295 295 295 295 294 294 294 293 292 291 290 289 288 286 285 285 285 284 284 285 284 284 283 283 283 283 283 284 284
296 293 294 296 293 290 291 291 293 295 291 294 293 293 292 291 291 291 287 288 284 283 282 283 287 283 286 288 291 290 290 292 294 296 296 296 293 292 292 291 291 291 290 291 291 292 292 292 292 292 291 290 290 291 292 292 293 294 294 293 293 292 292 292 291 290 289 289 289 287 286 285 284 284 284 283 283 282 282 282 282 282 282 283 283 283
297 295 295 295 292 293 290 292 291 294 293 294 293 291 289 287 286 283 283 282 283 279 284 287 288 288 283 284 288 289 290 293 295 294 295 293 292 292 292 291 290 290 290 290 290 291 291 291 291 290 290 290 289 289 291 291 292 292 293 292 291 290 290 290 290 289 289 288 288 286 285 285 284 284 283 282 282 282 281 281 281 281 282 282 282 283
293 293 294 293 295 293 293 292 292 292 294 294 289 284 286 284 279 282 280 282 278 278 281 288 288 288 282 280 286 292 291 290 294 294 294 293 292 292 292 291 290 290 290 290 290 289 290 289 289 289 289 288 289 289 290 289 290 291 291 291 289 288 289 289 289 289 288 288 287 286 285 285 285 284 283 282 282 281 281 281 281 281 282 281 282 282
287 288 291 295 296 295 291 291 291 289 291 291 289 288 283 279 278 275 277 276 275 279 280 283 286 283 285 290 291 293 294 295 291 292 294 293 291 291 291 291 290 290 289 289 289 289 289 289 288 288 288 287 287 289 289 289 289 289 289 289 289 288 288 289 289 288 287 287 286 286 285 285 285 284 283 283 282 281 281 281 281 281 281 281 281 280
287 287 292 293 294 295 296 291 284 285 288 288 289 285 282 278 276 273 273 274 275 279 281 283 285 285 284 289 295 297 299 300 297 289 291 293 292 291 290 290 289 289 289 289 289 289 288 288 288 288 288 287 287 288 288 288 288 288 288 288 288 288 288 288 288 287 287 286 286 286 286 286 285 284 283 283 282 282 282 282 281 281 281 281 281 281
282 282 289 293 289 295 297 297 294 289 288 290 288 291 286 282 275 274 276 276 278 276 279 281 283 279 281 287 288 289 287 286 288 288 289 290 290 290 289 288 288 288 288 288 289 289 288 288 288 288 287 287 287 288 288 288 288 288 287 288 288 287 287 287 287 287 286 286 286 286 286 285 285 284 283 283 283 282 282 281 281 281 281 281 281 281
286 286 289 297 293 295 295 297 293 290 288 286 288 288 284 286 285 283 277 277 277 277 276 277 282 282 288 288 286 286 286 288 287 289 288 288 288 288 287 288 288 288 288 288 288 288 288 288 287 287 287 287 287 287 287 288 288 287 287 287 287 287 287 287 287 287 287 286 286 286 285 285 285 284 283 283 283 282 282 282 282 281 281 281 281 281
285 283 289 293 292 295 295 296 294 295 286 286 289 285 289 288 290 284 280 281 279 276 280 277 282 283 287 292 293 289 287 287 285 288 288 287 287 287 288 287 287 288 288 287 288 288 287 287 287 287 287 287 287 287 287 288 287 287 287 286 286 286 286 287 287 286 286 286 286 286 285 285 284 284 283 283 283 282 282 282 281 281 281 281 281 281
287 285 289 289 289 292 290 292 295 295 293 288 283 287 291 290 288 284 279 276 276 275 278 280 282 283 282 285 288 288 286 286 286 286 286 287 285 287 288 287 288 288 288 288 288 288 287 287 287 287 287 287 287 287 287 287 287 287 287 286 286 286 286 286 286 286 286 286 285 285 285 285 284 284 283 283 283 282 282 281 281 281 281 281 281 282
295 285 287 289 289 290 292 293 292 294 292 290 286 291 291 282 282 283 279 275 274 275 276 278 282 284 285 287 283 286 286 289 288 286 285 286 286 287 287 287 287 287 287 287 287 287 287 287 288 287 287 287 287 287 287 287 286 286 286 286 286 286 286 285 286 285 285 285 286 285 284 283 283 283 283 282 282 282 281 280 280 280 280 280 280 280
293 287 285 287 289 290 290 290 284 286 293 291 291 291 289 283 280 281 283 278 278 275 273 279 279 283 286 287 288 289 289 290 291 286 286 288 288 288 288 288 287 287 288 288 288 288 288 288 288 287 287 286 286 286 286 286 286 285 285 285 285 284 284 284 284 284 284 283 284 283 282 282 283 283 282 282 282 281 281 280 280 280 280 280 280 279
290 291 282 284 286 288 284 286 286 289 287 285 286 286 288 285 287 284 283 282 279 274 274 278 279 282 286 292 291 293 291 291 291 290 289 289 289 289 289 288 288 288 288 288 288 288 288 288 288 287 287 286 285 286 286 286 286 285 285 284 284 284 283 283 283 283 283 283 282 282 282 282 282 281 281 281 281 280 280 280 280 280 280 279 279 279
290 288 286 284 283 282 285 290 293 293 293 291 290 287 290 286 284 280 281 283 281 281 279 275 281 285 289 290 295 293 293 292 292 292 291 290 289 289 289 289 289 288 289 289 289 288 288 287 287 286 285 285 284 284 285 285 285 284 284 284 284 283 283 283 283 283 283 282 282 282 281 281 281 281 281 280 280 280 279 279 279 279 279 279 279 279
295 288 286 281 282 286 288 289 291 292 293 290 291 287 292 290 287 284 281 280 282 285 283 279 276 286 289 287 287 292 292 293 293 292 292 291 290 289 290 289 289 289 289 289 289 288 288 288 287 286 285 284 284 284 284 284 285 284 283 283 283 283 283 283 283 283 282 282 281 281 281 281 281 281 280 280 279 279 279 279 279 279 279 279 279 278
295 289 288 285 287 287 289 289 289 289 291 289 289 287 288 289 290 289 287 286 285 281 281 278 279 284 288 287 286 283 282 283 287 289 291 291 289 289 289 289 289 289 289 288 288 288 287 287 286 284 284 284 284 283 284 284 284 284 283 283 283 283 282 282 282 282 282 281 281 280 280 280 280 280 280 279 279 279 279 279 279 279 279 279 278 278
291 287 289 284 282 282 284 285 286 286 288 285 285 290 291 291 289 289 286 285 284 286 283 280 280 286 289 286 283 284 286 288 286 287 288 289 288 289 289 290 289 289 288 287 287 287 286 285 285 285 285 284 284 284 284 284 284 284 283 283 283 282 282 282 282 282 281 281 280 280 280 280 280 280 279 279 279 279 279 279 279 278 278 278 278 278
294 289 289 284 282 280 279 279 279 280 286 287 286 288 290 291 290 287 285 287 283 287 286 285 285 288 286 286 289 286 286 288 286 285 286 289 289 289 289 289 289 288 288 288 287 286 286 286 286 285 284 284 284 284 284 284 284 283 283 282 283 282 281 281 281 281 281 280 280 280 279 280 279 279 279 279 279 279 279 279 278 278 278 278 278 278
288 289 292 290 288 286 287 286 286 288 283 284 286 288 289 290 292 291 289 286 284 284 284 288 289 290 290 287 287 289 286 286 287 287 289 288 288 288 287 289 289 289 289 288 288 288 287 286 285 285 284 284 284 284 284 284 283 283 283 282 282 283 282 282 281 281 281 280 280 279 279 279 279 279 279 279 279 279 278 278 278 278 278 278 278 278
286 288 290 292 291 292 293 292 289 290 287 288 287 286 288 289 289 288 287 285 288 284 284 290 289 288 291 292 290 287 286 285 285 286 287 286 288 289 289 289 290 288 288 287 287 287 286 286 285 285 284 284 284 284 283 283 284 284 284 283 283 283 283 282 282 281 280 280 279 279 279 279 279 279 279 278 278 278 278 278 278 278 278 278 278 278
289 288 291 291 290 293 294 294 291 290 290 290 289 289 287 288 288 287 288 290 288 286 286 291 289 289 292 293 293 294 292 290 291 290 290 291 289 287 287 287 288 288 288 287 288 287 287 286 286 285 285 284 284 284 284 284 284 284 284 284 283 283 283 282 281 281 280 279 279 279 279 279 278 278 278 278 278 278 278 278 278 278 279 279 278 278
291 289 291 290 289 291 292 293 291 289 290 288 288 288 289 288 288 288 289 290 290 289 292 292 291 291 294 291 292 295 294 293 293 290 288 289 289 288 288 288 288 288 288 288 288 289 289 288 287 287 286 285 284 284 284 284 284 284 284 283 283 282 282 282 281 280 279 279 279 279 278 278 278 278 278 278 278 278 278 278 278 278 278 278 278 277
291 289 290 287 287 288 290 291 288 289 289 288 288 288 289 289 288 289 289 289 290 290 291 291 290 290 295 292 292 293 292 291 288 287 289 290 290 288 288 288 289 289 289 289 290 290 289 289 288 287 286 285 285 284 284 284 284 284 284 283 283 283 282 281 280 280 279 279 279 278 278 278 278 277 278 278 278 278 278 278 278 278 278 277 277 277
290 286 286 287 286 287 289 287 286 287 287 287 288 289 289 288 285 286 287 290 289 288 289 289 287 288 294 294 295 289 289 290 291 290 289 289 289 288 288 289 289 289 289 290 290 290 289 288 288 287 286 286 286 285 285 284 284 284 283 283 283 282 281 281 280 280 280 279 279 278 278 278 277 277 278 278 278 278 278 278 278 278 278 277 277 276
288 288 286 286 286 286 290 287 286 286 285 284 286 290 291 291 291 290 290 290 290 292 288 287 288 294 295 290 291 290 290 290 290 290 289 288 289 289 290 291 291 290 291 291 290 290 290 289 289 288 287 287 286 286 285 285 284 283 284 283 283 282 280 281 280 280 280 279 278 278 278 278 278 277 278 278 278 278 278 278 278 277 277 276 276 276
287 287 288 288 286 287 288 286 287 284 279 282 293 296 295 292 292 289 289 290 291 291 290 293 294 294 291 288 292 292 288 290 291 292 293 292 289 288 289 290 290 291 291 291 291 290 290 290 289 289 288 288 287 287 286 285 284 284 284 283 283 282 281 281 280 280 279 278 278 278 278 278 278 278 278 278 278 278 278 277 278 278 277 277 276 276
287 287 287 287 284 285 286 285 283 278 281 290 288 290 295 296 295 293 293 294 294 292 292 291 291 292 293 291 291 292 292 292 292 292 291 290 290 291 290 290 290 290 290 290 289 290 289 290 289 289 288 288 287 286 285 284 284 284 283 283 282 282 281 281 280 279 279 278 278 278 278 278 278 278 278 278 278 277 277 277 277 277 277 276 276 275
288 287 287 285 286 284 281 284 277 280 287 287 288 284 284 287 287 288 289 292 294 294 293 291 293 294 294 293 289 289 290 290 289 288 287 287 288 290 289 290 290 290 290 290 289 289 289 289 289 289 289 288 287 286 285 285 284 284 283 283 282 281 281 281 280 279 279 279 278 278 278 278 278 278 278 278 277 277 277 277 277 276 276 275 275 274
291 288 288 285 288 281 284 284 284 288 287 289 289 283 286 287 286 288 285 289 293 294 293 293 294 294 293 293 291 288 285 287 287 288 285 287 288 288 290 291 290 290 290 290 290 290 290 289 289 288 288 287 287 286 285 285 284 283 282 281 282 281 281 280 280 279 279 279 279 278 279 279 278 278 277 277 277 276 277 277 275 276 275 274 274 272
293 288 288 285 284 287 284 282 282 282 280 286 289 285 290 290 290 290 289 288 292 290 292 293 293 293 292 292 288 284 285 286 286 288 286 286 287 288 287 288 288 288 288 287 287 287 288 288 287 287 288 287 286 286 285 284 284 283 282 281 281 281 280 280 280 280 279 279 279 279 279 279 279 278 278 277 277 277 277 277 276 275 273 273 272 272
291 293 290 287 285 284 283 281 282 280 284 288 285 284 283 281 288 287 287 285 287 282 288 292 292 293 292 291 284 285 287 287 288 290 288 286 286 287 287 286 287 288 288 288 288 287 287 287 286 286 286 286 285 285 284 284 283 283 282 282 281 280 280 280 280 280 279 279 279 279 279 279 278 278 278 277 278 277 277 276 275 274 272 273 273 272
287 288 288 285 284 285 284 282 281 285 286 285 282 283 284 280 287 289 279 281 286 283 282 283 289 290 290 288 286 287 289 287 289 288 287 287 287 286 288 287 287 287 287 287 287 287 286 286 285 285 285 285 285 284 284 284 284 283 282 281 280 280 280 280 280 280 280 280 279 279 278 279 279 278 278 278 278 277 277 276 274 273 273 272 272 271
284 284 286 283 285 285 285 283 285 285 287 284 283 282 281 281 288 283 280 285 283 280 282 283 285 284 284 284 287 287 287 285 288 287 286 286 286 286 286 287 287 287 286 286 285 286 286 286 286 286 285 285 284 284 284 284 284 283 282 281 280 280 281 281 281 280 279 278 278 278 278 278 278 278 278 278 278 277 275 275 275 273 272 271 270 268
284 285 283 286 284 284 285 282 284 286 287 285 281 282 282 288 282 282 282 279 278 281 283 283 283 283 284 286 286 285 283 281 282 283 285 286 286 285 285 285 284 284 284 285 285 285 285 284 283 283 282 282 283 284 284 284 284 283 281 280 281 282 282 280 279 278 277 277 278 277 277 277 278 278 278 277 276 275 275 274 274 273 272 270 269 269
284 283 280 282 284 283 282 282 281 278 286 284 285 284 285 284 284 282 281 280 279 280 282 284 283 283 284 283 280 280 280 280 280 282 283 284 284 284 284 284 284 284 284 284 283 283 284 283 282 282 282 281 281 283 283 284 283 281 281 281 282 281 278 278 278 277 277 277 277 276 277 277 276 277 277 276 276 276 275 272 272 270 270 269 268 269
287 283 283 284 287 280 282 279 281 285 284 282 285 285 283 285 286 282 284 282 281 280 281 282 284 285 285 284 280 280 280 281 281 282 282 282 283 283 282 282 282 283 283 283 283 282 283 282 282 281 280 280 280 281 283 283 282 280 280 282 280 277 275 276 276 276 276 276 276 275 275 275 276 276 276 276 275 275 274 271 271 270 269 269 269 269
288 284 285 282 286 285 283 284 282 281 283 282 282 283 284 284 284 283 285 285 281 282 282 284 284 285 285 283 281 281 281 281 281 282 283 282 282 282 282 282 282 282 282 282 282 282 282 282 281 280 279 278 279 279 280 281 281 279 280 279 277 276 276 275 274 276 275 275 275 275 275 273 274 274 274 274 275 274 274 271 269 270 267 268 268 268
282 283 284 283 281 282 283 283 284 282 282 282 283 283 283 283 283 284 284 286 284 284 283 283 283 285 284 283 282 281 280 280 280 280 280 281 281 281 281 280 280 280 281 281 280 280 280 280 280 279 278 277 276 278 278 278 279 279 278 274 276 272 274 273 274 274 276 274 274 274 272 272 270 270 271 272 273 275 274 273 270 271 268 267 268 268
282 283 283 282 284 284 281 283 283 284 284 284 284 285 284 283 284 284 284 283 283 282 282 281 283 285 284 283 283 281 279 280 280 279 280 280 280 280 280 280 280 280 280 281 280 279 279 279 279 278 278 277 275 276 276 275 276 276 273 273 274 273 272 272 273 273 270 270 270 268 268 272 272 269 266 266 267 269 271 271 270 270 268 268 268 268
280 285 283 283 283 283 281 280 280 281 282 283 284 284 285 285 285 284 282 280 280 280 281 281 282 282 282 282 281 280 280 280 280 279 280 280 280 280 279 279 279 279 278 279 279 279 279 280 279 278 276 278 276 275 274 274 273 271 268 269 271 271 271 272 272 272 269 267 266 266 265 267 269 267 265 265 265 268 267 267 268 269 270 268 268 268
283 286 279 284 280 279 280 280 279 282 284 285 284 284 284 285 284 284 281 279 279 280 280 280 280 281 281 281 280 280 279 279 280 280 280 279 279 278 279 278 278 278 277 278 277 278 280 278 277 277 277 275 273 271 270 270 270 269 270 267 266 269 271 270 268 266 265 264 265 265 264 264 263 264 263 262 261 261 262 265 265 267 266 265 263 264
282 277 281 282 278 278 279 281 281 282 282 285 286 286 286 285 284 282 280 280 279 279 279 280 279 279 279 280 281 281 281 279 279 279 279 279 279 278 277 277 276 276 275 274 275 274 274 275 275 274 273 272 270 271 270 268 268 268 268 264 264 267 269 268 267 265 265 265 265 263 264 263 263 262 263 263 263 263 262 266 271 268 265 264 270 273
281 282 283 281 282 280 283 282 285 286 285 286 288 288 286 285 283 282 281 280 279 279 279 279 279 279 280 279 279 281 280 280 279 279 278 278 278 279 279 278 277 276 275 275 275 272 273 272 272 272 272 271 270 270 269 267 265 265 265 266 266 266 267 267 268 266 265 264 265 266 265 263 263 263 263 263 262 261 262 262 264 272 274 273 272 273
Wind_Speed
3 3 4 5 8 9 7 9 10 7 6 2 0 1 4 3 4 4 1 3 2 1 7 9 9 8 9 9 8 10 7 7 7 8 10 9 10 11 10 11 10 9 8 6 8 6 6 6 6 5 5 6 6 7 7 8 8 8 9 9 9 8 8 6 7 7 7 8 8 8 7 9 6 7 7 7 6 7 6 7 7 7 7 8 8 7
3 4 6 9 9 8 10 9 7 5 4 4 4 2 6 1 6 4 2 1 1 4 3 4 5 8 10 9 8 3 5 11 13 13 13 12 12 11 12 11 9 5 4 7 6 6 6 5 6 5 5 6 9 6 7 8 8 7 7 7 6 4 4 5 6 5 5 5 6 8 7 8 6 6 7 7 6 6 6 7 7 7 7 8 8 7
3 8 8 12 6 5 5 5 5 7 7 5 4 4 2 6 4 6 1 0 0 1 7 6 6 9 11 9 8 5 11 11 15 17 18 15 12 11 11 10 8 7 9 6 6 6 7 6 6 5 5 5 6 7 7 7 8 7 7 6 7 6 6 5 6 6 7 7 6 9 6 8 8 5 5 7 5 5 7 7 7 7 7 8 8 7
4 4 13 11 4 5 5 5 3 2 1 5 1 1 6 3 1 6 3 1 2 4 2 1 5 9 9 8 11 12 12 10 11 15 13 10 14 16 16 16 15 13 13 13 12 11 8 8 6 5 6 6 6 6 6 7 8 7 7 6 8 7 5 6 6 7 7 9 9 10 10 7 9 8 6 8 6 6 8 9 7 7 7 8 8 8
10 5 5 6 7 6 6 4 4 4 6 2 3 2 2 2 4 7 5 2 2 3 1 5 8 9 8 11 9 11 5 7 9 7 8 7 8 9 7 8 13 18 17 13 11 10 10 10 9 8 6 6 7 7 7 7 7 6 8 8 8 8 7 6 8 10 10 11 10 10 10 10 11 7 6 8 7 6 6 7 8 7 6 7 8 7
10 9 1 3 5 6 6 5 6 6 4 3 4 7 7 5 7 5 1 1 4 4 2 1 6 5 4 5 9 9 2 4 4 6 10 13 10 8 12 14 10 7 9 16 17 15 12 10 8 6 7 7 6 7 6 6 6 7 8 8 7 7 7 8 8 10 10 10 11 10 10 9 9 7 7 8 8 6 7 7 4 7 6 6 7 7
7 4 6 5 4 5 7 7 5 7 6 2 5 5 6 7 6 4 4 2 3 4 2 2 3 11 2 8 8 7 5 11 5 6 11 9 10 11 13 13 13 13 10 5 6 9 11 10 9 8 8 7 8 6 5 5 6 7 8 8 9 8 7 7 8 7 9 9 9 9 8 8 9 10 5 4 4 7 6 6 7 6 6 6 9 8
3 6 8 5 5 7 6 7 4 8 6 4 2 2 4 4 5 5 3 4 5 1 3 2 3 6 15 9 5 10 12 15 13 12 10 10 11 11 10 11 11 12 11 12 12 12 10 11 13 13 9 8 8 5 4 6 6 9 9 9 9 8 8 7 7 7 7 9 7 9 9 8 8 8 10 8 6 5 6 8 7 7 7 7 7 8
3 5 6 6 6 5 8 5 4 7 6 4 1 5 2 4 4 3 2 0 0 2 8 2 1 5 7 7 3 2 6 8 14 13 13 13 9 7 6 8 9 10 12 13 13 14 14 14 12 10 9 6 6 5 6 6 6 7 8 9 9 9 8 7 7 7 4 8 9 10 9 10 7 9 8 7 6 7 6 10 7 8 7 7 7 7
2 6 8 10 8 8 4 1 2 9 5 2 3 5 4 4 3 2 1 1 3 1 9 4 4 5 16 3 6 3 4 8 11 13 14 14 11 11 9 7 7 7 8 8 10 11 10 9 8 6 6 6 7 5 5 5 6 7 8 9 9 8 7 7 6 6 6 8 10 10 10 13 10 9 8 7 8 7 6 9 8 7 7 6 7 7
1 2 4 4 5 4 5 1 1 1 3 4 5 6 4 7 4 3 4 3 2 5 10 8 10 9 11 2 7 5 6 6 7 5 7 4 6 8 7 9 9 9 9 9 9 8 8 7 7 7 9 7 5 4 5 5 6 7 8 9 9 7 7 7 8 8 8 9 10 10 11 13 14 11 11 10 8 7 7 9 7 7 7 6 7 6
1 1 1 1 3 3 4 4 4 2 2 8 2 4 3 3 5 3 3 3 1 8 4 11 11 12 11 4 6 6 3 3 5 6 7 7 9 11 11 11 10 10 10 9 9 9 9 8 7 8 9 8 8 6 6 5 6 7 8 9 9 6 7 7 8 10 9 9 10 9 10 12 12 13 11 12 12 10 10 9 9 7 7 6 6 6
3 3 2 2 2 9 3 5 2 5 2 5 7 7 5 3 4 2 2 2 5 9 3 2 5 1 17 12 5 7 7 8 4 5 7 9 7 7 8 11 11 9 9 11 10 10 10 11 12 11 10 8 9 9 8 7 7 7 8 9 10 8 7 8 8 10 9 9 10 10 10 10 10 9 10 10 11 9 10 9 10 9 8 7 7 6
6 1 1 2 3 4 8 9 1 0 3 6 8 7 5 1 2 5 4 3 5 5 5 0 3 8 2 8 14 21 21 16 11 5 6 8 11 11 11 10 10 10 11 11 11 11 11 11 11 11 11 10 9 9 9 8 8 7 8 9 10 9 7 7 8 9 10 10 10 10 9 10 9 9 9 9 10 9 8 8 10 9 9 8 8 8
4 3 8 8 6 6 10 12 14 7 9 9 3 11 10 8 5 5 5 5 7 4 1 2 5 7 4 6 1 5 4 3 1 3 2 1 3 5 6 6 7 8 7 9 10 11 12 12 12 12 11 10 10 10 10 8 8 9 9 10 11 10 8 8 9 9 10 10 10 9 8 9 7 9 8 8 7 9 9 7 8 7 7 8 7 8
13 7 6 15 0 9 13 5 8 6 3 2 3 5 5 9 6 6 4 2 2 1 2 1 6 5 8 2 2 2 3 1 3 1 3 4 4 6 7 10 11 10 10 9 10 10 10 11 10 10 10 10 10 11 9 9 9 10 10 9 10 11 10 9 10 9 10 10 9 8 9 9 8 7 7 7 6 6 7 8 9 8 7 7 7 6
2 5 2 4 4 11 9 3 3 8 7 4 6 7 9 2 4 2 2 1 0 1 11 4 8 7 8 11 10 8 2 2 3 2 3 5 5 6 8 8 9 10 10 10 10 10 10 9 9 9 10 9 10 10 11 11 10 11 11 11 10 9 8 9 9 10 9 10 10 9 9 9 8 9 10 10 9 8 7 7 7 8 7 6 6 7
8 4 2 4 4 1 0 0 1 1 5 6 4 7 2 2 4 3 4 3 1 4 6 5 8 6 1 11 1 2 3 6 5 7 4 3 4 9 10 10 11 11 11 10 9 9 10 10 10 9 9 10 11 11 10 10 8 8 9 10 11 10 12 10 10 10 10 11 10 9 9 9 9 9 8 9 10 8 8 7 7 6 7 7 6 7
3 2 2 1 0 2 1 4 3 2 2 7 7 3 9 3 2 1 3 3 2 5 6 5 8 11 10 11 2 2 7 11 12 7 4 7 9 12 9 9 7 6 8 10 11 11 11 12 13 12 11 10 9 9 9 8 8 8 7 8 9 10 10 10 8 7 7 8 8 8 9 10 8 7 7 7 8 8 9 9 8 8 7 7 6 7
1 6 2 1 2 1 1 4 7 4 1 0 2 3 1 4 2 6 7 3 5 5 1 8 7 10 7 7 8 9 14 14 13 6 11 15 15 12 11 10 11 12 12 12 12 13 13 13 13 12 12 12 12 11 10 10 8 9 8 9 8 7 7 8 8 8 9 7 7 7 6 6 6 7 8 9 10 9 9 8 9 8 8 8 6 6
2 1 4 1 3 2 3 4 8 13 11 3 2 5 1 0 1 4 1 4 5 4 5 7 11 3 5 7 10 12 13 14 13 14 14 14 14 12 11 12 11 11 11 12 12 12 12 11 11 10 9 9 7 7 8 9 9 8 7 8 9 11 10 9 8 8 8 7 7 9 9 9 8 8 7 8 7 9 8 7 7 7 7 7 7 7
3 3 8 3 1 5 7 6 10 13 15 15 15 13 14 9 4 3 9 1 1 2 6 2 17 4 2 1 8 9 10 11 12 13 15 14 12 13 12 10 11 12 12 12 11 10 10 9 9 7 7 7 9 9 11 9 9 9 9 9 9 9 9 10 9 9 8 7 8 9 9 8 7 8 8 8 8 8 8 8 8 8 7 8 7 7
7 3 5 5 7 11 8 5 3 2 0 1 4 5 9 8 5 4 8 4 0 7 1 2 3 17 4 1 3 7 7 10 12 12 12 10 11 12 12 10 10 11 11 11 11 10 9 9 10 10 11 12 12 11 11 10 10 10 10 10 9 11 10 9 9 8 8 8 9 9 8 8 8 8 9 10 8 9 9 8 8 7 9 8 7 5
5 3 3 1 0 2 2 2 4 4 3 1 0 2 4 12 12 10 6 4 5 1 3 2 6 8 2 0 1 3 3 4 4 5 11 8 7 8 11 11 12 11 9 6 6 6 8 9 9 10 11 12 12 12 13 11 10 10 10 10 10 12 11 10 9 9 9 8 8 8 8 8 8 9 9 10 9 10 8 9 8 7 8 7 7 8
5 4 7 2 1 0 1 4 2 4 2 3 5 9 12 4 2 3 4 2 3 14 7 4 14 15 1 2 2 2 1 1 2 3 5 6 5 8 11 10 9 9 7 8 10 10 10 10 13 14 13 13 12 11 11 12 12 11 11 10 11 10 10 9 8 10 9 9 10 9 9 9 9 10 10 10 9 10 9 9 9 7 8 8 7 6
8 7 9 7 11 12 10 9 7 4 11 5 2 3 7 12 11 3 5 8 10 9 12 9 17 8 1 2 2 2 2 2 2 2 2 7 8 9 9 9 10 10 12 12 12 12 16 16 13 12 12 11 12 13 13 12 11 11 10 11 10 11 10 10 8 9 10 9 11 10 10 10 10 11 11 10 10 11 10 9 9 8 7 7 8 7
3 4 11 12 13 14 15 4 4 8 5 6 10 13 14 14 13 11 6 6 16 4 8 18 19 16 13 2 4 7 2 5 5 4 6 8 7 6 6 7 10 12 14 17 17 14 10 11 17 16 14 12 11 11 12 12 12 11 11 11 10 10 11 10 10 10 11 10 11 10 11 11 11 10 10 10 10 9 9 9 9 9 9 8 8 9
4 4 12 13 15 18 17 13 10 17 15 16 14 13 14 14 15 16 15 20 6 5 17 19 5 12 27 11 9 6 6 5 6 7 6 5 6 11 12 10 9 7 7 6 8 13 17 15 11 12 13 12 12 11 10 10 11 13 13 14 11 11 11 10 11 11 11 11 11 11 12 11 10 9 9 9 9 9 9 9 8 8 7 8 9 9
7 8 11 12 16 19 18 18 13 13 13 14 17 16 15 17 16 21 24 21 8 12 20 19 11 17 26 11 11 13 11 12 13 13 13 9 4 4 4 8 11 13 11 13 15 13 13 14 14 14 14 14 12 13 13 12 11 10 9 9 11 11 12 11 12 12 12 11 12 12 11 9 8 7 8 9 9 9 9 9 8 8 8 8 8 7
4 7 9 11 16 16 19 17 7 13 6 4 10 14 16 19 24 27 25 17 14 15 20 24 20 18 24 3 11 13 10 13 9 4 2 5 9 9 8 9 12 12 14 15 15 16 16 17 16 16 14 13 16 15 14 13 13 13 13 12 12 12 11 11 12 13 12 12 12 10 10 10 8 9 9 9 10 10 9 9 9 9 9 9 8 8
4 6 7 4 7 15 19 12 4 9 7 7 8 12 18 23 24 21 13 11 17 21 26 22 18 23 20 7 9 6 4 1 0 5 11 11 8 11 13 14 14 15 16 16 15 15 14 13 12 12 14 15 16 17 16 14 13 11 11 11 12 12 12 11 12 12 12 13 11 10 10 10 10 9 11 10 9 8 9 10 8 8 8 8 8 9
3 5 2 5 8 14 14 7 5 5 5 7 12 17 23 20 9 6 13 20 14 19 21 15 17 21 17 7 7 3 4 8 11 11 9 8 10 10 12 13 13 13 13 14 14 13 13 13 13 14 17 17 16 16 14 13 12 12 14 12 12 11 10 11 12 12 12 11 10 10 11 10 10 10 10 9 9 9 9 8 9 9 8 8 8 8
8 5 5 5 10 14 16 9 9 6 2 6 17 30 26 16 13 11 13 12 18 18 13 15 22 21 16 5 7 7 10 11 11 9 10 10 10 14 17 18 19 17 17 16 15 16 15 16 18 19 18 15 15 15 15 13 12 14 13 13 11 9 11 12 11 11 11 10 10 10 10 10 11 11 10 9 9 9 9 10 9 9 9 10 8 7
3 6 9 6 11 12 11 9 7 5 11 16 20 11 15 19 19 19 18 20 19 14 16 19 20 18 8 6 12 13 9 11 12 14 14 15 13 13 14 12 11 12 12 13 15 16 16 14 12 12 14 14 13 11 9 11 13 10 9 10 10 12 12 12 11 11 11 9 10 10 10 11 10 10 10 9 9 9 10 10 11 10 8 7 7 9
9 7 6 3 3 10 3 9 6 15 18 11 4 4 9 18 19 20 22 19 18 18 19 19 19 20 19 10 9 9 11 11 10 13 13 11 12 15 18 18 16 14 15 13 11 10 11 12 11 10 10 11 12 11 11 10 10 10 10 11 13 12 12 12 12 11 11 11 10 10 10 11 10 11 10 10 9 10 10 11 9 9 9 9 10 11
9 11 5 2 3 2 1 7 9 12 5 4 5 1 1 4 2 6 11 18 20 20 20 22 24 23 20 14 9 7 8 10 7 7 4 2 7 11 11 12 13 14 15 12 12 11 11 13 15 15 14 9 11 11 12 12 11 12 12 11 12 11 12 12 12 12 11 11 11 12 12 12 11 10 9 10 9 10 11 10 11 11 9 8 7 5
13 6 7 7 7 9 7 12 16 6 14 12 11 3 6 6 6 11 11 15 19 18 16 16 20 20 16 15 12 8 3 1 4 9 1 6 8 8 11 11 11 10 8 8 10 12 9 8 9 9 9 10 11 11 12 10 11 11 10 11 10 11 11 11 12 13 12 12 12 12 12 12 12 11 10 9 10 11 11 11 10 9 7 8 8 8
11 12 7 10 5 11 11 11 5 5 12 19 6 2 7 5 7 7 8 13 10 7 12 15 19 20 16 13 7 4 4 3 9 12 5 6 5 4 1 1 2 3 4 4 3 4 7 7 8 9 11 10 9 9 8 9 11 11 11 11 10 11 11 11 13 12 11 12 12 12 11 11 11 11 10 10 13 13 11 10 8 9 8 11 10 10
7 11 10 15 6 7 9 9 9 10 13 4 1 3 0 2 7 5 4 13 3 1 7 14 19 19 15 13 6 8 7 10 14 11 6 6 4 5 6 3 4 6 7 10 13 13 11 9 9 8 8 9 8 6 8 10 11 11 11 10 10 11 11 13 12 10 12 13 11 10 10 10 10 11 11 12 12 12 12 11 11 9 8 9 8 9
11 8 6 8 10 9 9 10 11 6 9 2 4 0 2 1 5 7 2 8 2 3 3 3 12 11 8 4 9 9 11 14 13 4 4 7 7 4 7 10 8 8 8 6 4 6 8 9 10 8 8 8 8 7 9 10 10 10 10 9 9 10 12 13 12 12 11 9 8 9 8 9 10 11 12 13 11 10 10 7 6 8 9 8 7 7
6 3 9 15 13 15 15 9 5 6 3 2 5 4 2 2 5 6 14 1 1 4 4 3 5 3 5 6 8 10 3 1 1 1 6 9 9 7 5 4 5 5 7 7 7 7 8 7 8 9 8 6 8 8 9 9 9 9 8 9 9 11 13 11 8 8 7 7 7 7 9 8 10 12 11 11 11 9 7 7 9 8 8 9 7 6
4 3 1 4 11 12 12 12 11 6 3 5 1 6 3 6 7 11 1 2 2 3 3 2 3 2 6 9 8 2 1 0 3 3 6 5 8 7 7 8 8 7 5 5 7 8 8 8 7 7 6 5 8 8 8 9 9 7 7 7 9 12 9 5 6 6 6 7 8 8 8 9 8 9 10 7 7 8 9 7 7 8 9 7 7 9
12 9 8 10 5 1 1 9 3 8 2 6 10 3 1 5 3 3 2 1 4 3 0 1 2 3 4 4 3 4 4 4 4 5 5 6 7 8 8 8 8 9 9 9 7 5 9 8 7 7 7 6 6 6 7 8 8 7 6 8 12 6 4 5 5 6 7 6 7 7 9 8 9 9 7 8 9 9 9 7 7 7 7 8 8 9
4 6 4 7 7 6 8 9 8 3 7 2 2 8 5 3 3 5 4 0 1 2 1 0 1 2 2 4 6 4 4 6 5 5 7 6 6 6 5 6 7 7 6 4 5 7 6 8 6 7 5 5 5 5 6 9 8 7 7 12 3 4 4 5 5 6 6 7 7 7 7 8 8 8 7 9 9 9 9 8 8 8 8 8 9 9
5 6 2 6 2 6 4 2 0 2 2 1 1 1 0 0 1 3 1 1 2 2 2 2 2 3 3 6 5 5 3 2 4 2 5 5 5 5 6 5 6 7 6 7 7 5 5 9 9 7 6 4 5 4 5 6 10 7 9 4 4 5 6 5 5 6 6 7 7 8 7 6 7 8 7 7 9 9 8 7 7 8 6 7 8 8
3 2 0 6 1 1 1 2 1 1 2 2 1 2 2 0 0 1 3 0 1 2 2 3 3 4 4 5 7 1 3 4 5 3 3 4 5 4 4 6 5 5 5 6 6 5 6 6 7 8 8 4 4 4 4 4 8 11 6 3 5 4 5 6 6 6 7 6 6 7 5 7 6 6 6 7 8 9 9 10 9 9 7 7 8 8
1 0 1 3 2 5 3 2 1 1 2 3 4 4 2 2 2 1 1 1 1 2 3 2 5 5 5 4 5 6 4 4 5 3 4 5 5 5 6 6 6 7 8 8 7 8 7 8 8 7 7 7 4 5 4 5 4 2 2 4 5 6 6 6 6 5 4 5 2 1 3 5 6 5 4 5 5 6 7 7 8 8 8 8 9 9
3 3 4 1 3 3 1 0 3 3 5 6 3 2 3 2 2 0 2 3 4 3 4 3 4 4 4 4 4 7 5 4 7 5 5 5 6 6 6 6 7 5 3 4 6 6 6 7 8 7 6 7 7 5 5 4 3 2 3 3 5 6 6 6 6 7 5 5 4 4 3 3 3 4 3 1 1 5 4 4 6 8 10 11 11 11
2 5 3 3 4 0 3 4 3 1 4 6 5 5 6 5 3 1 2 3 3 5 5 4 3 3 4 5 4 7 6 4 4 6 6 4 4 4 5 6 5 5 7 7 5 6 9 7 7 7 7 3 2 3 3 2 1 2 2 3 4 5 6 6 5 5 5 5 5 5 4 5 4 4 4 3 1 1 1 5 4 5 3 1 1 4
5 3 3 5 4 3 7 7 8 5 4 6 9 12 10 6 4 3 0 2 3 5 4 5 4 3 3 4 6 7 7 5 3 4 5 5 5 5 4 4 4 4 4 3 4 4 3 4 4 4 4 3 3 5 4 3 3 1 2 3 4 4 5 5 5 5 5 5 4 4 5 4 5 4 6 6 6 6 5 5 8 7 6 6 4 7
7 8 7 6 7 6 5 7 11 4 2 6 10 11 10 6 4 5 5 4 3 3 5 7 5 3 3 2 1 5 5 7 6 4 5 4 5 5 7 8 7 5 4 5 6 4 4 4 4 5 5 4 4 5 5 4 2 2 2 0 1 3 4 4 5 3 4 4 4 5 6 4 5 5 4 5 4 4 4 4 5 6 8 9 8 10
Wind_Direction
124 119 167 187 214 203 206 199 202 212 187 214 188 152 225 216 282 285 233 255 152 61 228 226 234 248 258 251 244 223 198 222 236 234 229 213 200 197 198 198 192 185 179 161 153 151 155 160 162 164 162 148 148 149 147 140 146 146 143 139 140 143 145 139 128 125 132 120 106 92 96 98 91 89 84 73 64 67 63 60 60 62 65 66 67 63
83 177 233 223 215 190 204 216 216 241 251 237 243 266 286 200 270 242 280 205 259 168 291 251 258 261 255 260 261 218 172 219 218 224 228 218 206 202 196 193 186 164 103 144 143 154 151 160 165 165 165 157 151 159 146 148 154 140 127 125 125 122 123 126 125 129 114 108 123 122 116 107 97 93 92 85 66 73 67 61 62 66 68 70 70 70
188 205 231 231 220 200 228 219 214 214 233 243 219 233 249 279 238 290 334 316 277 165 261 277 265 262 264 260 267 224 199 218 215 212 215 205 203 202 199 187 162 149 166 163 163 162 166 173 177 169 171 163 151 152 149 147 141 132 118 119 114 113 116 115 119 120 112 107 114 116 121 114 100 71 84 93 87 78 78 65 61 65 69 74 71 72
255 285 240 236 197 218 261 262 181 100 115 177 152 162 228 232 340 293 295 288 250 180 249 288 287 273 269 257 252 247 216 225 225 222 224 205 199 198 195 183 177 174 168 178 178 173 172 175 182 177 176 167 153 155 156 153 144 133 127 124 119 120 118 117 112 103 101 103 99 98 107 94 101 114 96 86 75 72 76 64 60 55 66 71 75 71
202 211 213 201 198 194 222 230 183 195 245 301 187 186 190 246 229 201 260 310 319 320 3 316 294 279 247 257 263 261 259 255 249 226 234 236 225 214 195 190 182 176 176 173 170 174 174 178 186 183 174 163 160 166 166 162 155 142 136 131 129 130 130 126 123 118 116 108 103 104 98 100 93 77 87 86 65 65 77 81 61 57 60 72 77 74
246 249 261 141 197 206 205 225 205 147 220 290 235 193 215 219 244 250 315 28 22 336 308 101 331 283 276 242 248 271 348 258 253 206 223 217 213 179 185 193 186 192 182 173 176 176 175 173 170 178 174 171 168 170 176 162 148 136 131 127 122 118 125 131 131 132 128 128 129 128 125 121 115 111 106 107 120 103 88 90 91 67 62 76 80 77
215 200 203 210 182 204 200 208 228 158 198 179 269 188 209 218 229 240 274 39 302 252 299 87 222 284 258 265 250 263 268 263 275 223 233 220 210 197 197 187 183 178 173 173 162 161 168 177 175 179 180 177 168 180 170 148 144 136 133 132 131 133 131 136 137 139 133 133 135 130 123 122 125 124 98 101 102 109 103 100 89 87 71 68 82 73
137 189 193 197 171 178 189 208 233 160 139 228 240 165 146 172 213 231 202 176 226 237 308 17 124 264 295 274 203 228 239 251 255 250 240 226 213 208 198 184 180 176 173 169 174 176 178 178 179 179 176 174 173 174 161 147 146 139 138 134 134 135 140 145 144 147 148 134 130 120 116 117 120 120 129 129 121 108 113 98 92 88 76 68 70 80
159 172 158 179 183 169 196 203 203 156 149 213 245 153 120 139 157 114 101 109 209 27 285 298 33 303 238 274 307 170 246 255 253 246 241 231 215 211 198 186 178 175 174 170 169 177 179 181 182 173 171 171 164 177 161 155 150 139 136 132 133 138 143 148 149 142 143 130 130 124 124 115 111 120 124 123 117 113 112 100 93 89 87 79 72 75
297 170 200 169 166 205 210 261 115 159 161 251 142 80 84 76 71 77 74 45 336 23 256 199 187 231 276 229 261 260 231 246 248 244 241 234 204 196 191 181 169 164 166 174 173 172 175 174 171 163 141 155 171 177 157 148 139 138 135 133 134 137 143 147 142 134 134 127 125 126 130 128 130 129 124 121 121 117 116 106 103 99 95 93 87 80
228 331 172 110 194 182 132 80 105 263 183 132 73 64 20 36 29 10 69 90 38 254 246 196 208 178 283 216 190 178 223 202 239 269 266 241 183 193 191 176 169 167 165 166 165 168 165 162 156 150 160 161 162 173 157 150 145 142 139 139 136 140 134 139 137 134 136 133 131 134 140 139 139 139 135 130 125 127 121 117 115 109 105 99 98 95
2 350 123 268 94 102 103 83 359 52 107 123 110 112 49 340 13 33 349 43 168 264 224 207 204 178 228 285 278 247 266 222 198 215 237 243 201 191 183 178 173 166 164 159 158 161 155 150 155 155 160 166 169 165 159 159 149 145 145 142 136 137 138 136 137 133 137 136 135 138 145 144 146 145 145 142 142 146 135 132 126 123 110 102 100 98
290 210 246 28 252 131 103 94 340 16 4 92 100 80 131 252 35 319 39 276 205 234 255 226 160 17 241 243 264 278 269 275 220 197 210 219 213 189 182 177 172 165 159 164 164 161 166 167 166 171 168 165 173 174 167 167 157 149 147 148 143 148 147 141 142 137 139 138 142 147 148 144 144 144 142 143 141 149 142 141 136 136 127 130 114 117
269 281 203 220 345 234 146 163 158 350 237 126 141 148 124 231 219 267 247 242 296 293 263 360 156 242 296 279 230 244 254 260 273 239 228 193 189 185 178 170 168 172 171 170 167 169 170 169 174 176 173 175 174 174 172 169 160 157 153 154 150 153 151 143 140 142 142 146 147 150 151 149 149 149 149 150 147 151 146 147 144 144 144 140 138 136
237 315 238 146 247 185 190 196 189 163 157 201 110 151 187 148 151 234 178 208 220 220 294 273 119 236 139 240 251 244 276 311 314 297 256 201 177 160 152 148 152 164 177 171 173 174 172 174 175 177 177 178 179 175 174 171 164 157 157 158 155 151 155 147 146 146 146 148 150 151 151 149 150 152 152 152 152 150 148 150 141 139 140 136 142 135
212 223 257 189 85 158 194 200 105 102 96 218 166 60 95 220 147 227 194 184 273 323 324 194 207 192 196 237 274 248 302 354 350 31 123 141 128 139 151 168 177 178 176 177 175 174 177 177 176 176 181 181 180 179 175 173 167 163 163 160 159 155 154 151 149 152 150 151 149 148 152 155 152 149 142 141 146 150 148 148 145 142 141 137 131 127
74 244 301 137 27 171 200 139 189 151 195 216 110 198 205 183 179 273 345 315 60 29 250 157 279 283 300 279 249 239 206 289 336 245 174 177 169 164 180 183 184 183 177 178 179 178 180 180 184 183 181 182 181 181 182 177 172 165 161 160 156 155 151 152 155 152 153 151 149 154 155 153 154 156 159 158 156 150 144 138 139 137 138 130 128 127
154 228 329 100 200 318 115 193 121 346 138 98 186 227 67 72 114 133 223 334 38 225 272 163 232 268 75 282 238 177 204 255 262 237 233 203 187 191 198 193 190 187 183 177 177 181 183 184 185 184 187 187 186 181 176 174 170 166 163 162 157 158 156 157 155 154 155 153 153 155 157 160 161 159 156 153 149 145 137 135 129 130 132 139 137 129
138 304 221 3 132 303 347 102 61 33 44 155 193 201 138 247 238 281 92 269 199 253 282 253 218 250 188 244 75 191 209 232 237 230 224 222 211 212 203 201 197 181 173 177 181 183 185 187 189 188 187 183 180 177 174 166 163 161 161 162 160 160 159 153 151 147 147 150 153 159 160 158 154 153 149 144 141 141 142 143 145 142 138 127 129 130
112 187 301 332 111 260 42 113 185 195 310 51 73 160 169 102 165 145 201 174 113 257 19 282 116 257 167 223 186 216 206 217 224 205 223 219 211 206 202 194 190 190 189 187 189 190 189 189 188 185 180 178 176 173 172 168 163 164 161 156 153 143 142 142 147 150 153 155 150 148 143 146 149 152 151 151 148 148 148 148 144 141 138 144 138 143
231 161 247 231 302 101 184 181 195 175 177 176 129 195 211 20 244 123 298 160 171 196 197 284 287 237 218 197 187 209 205 213 208 210 218 223 216 210 203 193 193 194 195 195 193 189 186 184 182 178 176 171 164 165 165 168 168 161 154 157 158 154 154 153 155 152 156 152 151 150 154 154 153 154 148 143 145 140 144 144 142 144 142 135 150 153
184 158 200 137 187 216 242 227 212 194 182 176 173 192 182 143 145 181 255 75 162 160 248 186 265 268 252 171 193 200 208 213 216 208 218 222 213 205 202 197 193 193 200 198 194 185 179 177 173 165 160 157 159 167 169 168 160 162 164 162 156 151 159 157 160 160 156 155 154 157 155 156 153 150 147 145 145 144 147 148 149 147 146 153 162 160
165 154 95 180 203 203 222 262 292 198 36 218 170 202 179 187 143 156 232 239 256 244 171 223 333 277 185 159 203 207 207 219 218 207 220 220 209 205 201 197 198 199 196 195 186 180 176 173 172 172 171 171 173 171 168 167 169 166 162 160 164 160 166 162 158 155 155 156 158 159 155 154 155 153 153 150 151 151 151 151 150 155 155 159 161 163
93 106 172 282 272 315 338 340 15 31 76 58 353 121 147 208 197 205 202 167 197 275 190 264 252 254 26 337 294 267 253 261 270 202 226 220 207 199 193 193 196 194 195 186 175 167 168 167 163 164 174 175 175 175 176 171 165 163 164 165 161 166 161 159 159 156 154 154 156 154 153 159 157 155 157 156 157 155 155 153 156 159 157 160 158 156
153 246 140 125 335 341 347 345 7 345 46 208 193 208 209 208 167 203 86 143 260 231 160 167 249 266 258 16 311 6 337 298 304 275 209 233 219 201 196 199 196 185 169 176 176 170 164 169 176 184 181 180 180 175 170 172 171 167 168 165 165 164 161 156 157 156 157 157 155 159 160 163 164 163 164 160 159 158 156 158 157 161 161 157 158 159
179 154 153 183 215 231 231 205 188 178 204 213 246 186 201 202 200 123 235 221 223 250 137 224 251 244 31 314 293 318 338 305 276 272 261 206 201 200 197 191 190 183 188 180 176 174 184 185 181 181 184 183 184 178 174 173 170 169 166 169 164 159 160 161 156 158 155 161 162 165 169 169 169 172 168 163 162 162 162 161 161 161 165 162 159 159
141 165 179 190 209 232 241 242 183 140 92 182 216 187 206 207 200 203 231 221 225 191 185 228 233 274 265 211 263 249 237 241 250 269 227 215 217 208 199 191 190 191 189 187 185 185 176 180 189 188 183 184 182 180 177 173 171 170 167 165 167 163 160 160 160 161 163 168 169 169 174 175 178 173 169 168 165 161 162 165 166 165 167 169 162 161
98 163 214 207 212 232 241 230 183 163 184 203 197 207 202 194 195 196 202 226 157 89 253 246 188 241 260 222 226 247 247 254 256 243 252 253 225 203 197 191 184 185 199 195 187 185 191 191 184 183 184 180 184 179 176 177 176 174 172 170 167 164 162 164 164 166 170 170 174 178 179 181 177 173 171 165 163 166 167 166 167 170 167 163 167 167
152 200 214 204 229 235 236 237 175 190 192 194 200 198 195 199 195 204 220 223 146 202 239 256 165 227 253 229 205 222 209 212 215 221 218 207 191 182 165 174 188 195 189 191 198 191 186 187 188 186 185 186 177 181 179 176 175 172 172 168 169 168 173 165 165 170 173 176 180 183 178 174 175 172 165 165 165 167 171 170 169 168 169 173 170 171
156 223 214 182 225 237 242 239 170 182 211 199 208 204 201 197 205 209 218 213 207 228 242 253 245 244 258 200 197 219 208 214 225 213 135 175 201 185 181 196 199 196 195 199 196 191 192 192 189 188 182 181 186 184 181 179 179 179 175 175 173 172 170 163 173 173 177 182 185 178 175 174 172 173 168 169 174 175 171 170 170 170 172 176 173 169
139 238 114 147 219 243 243 241 165 192 209 222 217 214 215 214 214 213 214 220 222 234 241 251 265 265 261 137 213 228 217 190 84 178 206 209 182 182 191 197 201 200 200 197 195 198 197 191 187 181 182 189 189 190 186 184 177 171 173 176 176 176 173 170 174 180 180 185 182 175 171 172 178 172 178 179 174 172 171 174 172 173 173 171 172 173
167 259 40 127 212 251 246 207 186 180 215 241 250 237 228 220 216 179 206 217 207 227 239 248 256 256 260 132 227 144 152 189 211 214 211 211 199 190 194 206 205 204 202 201 198 193 190 189 185 184 190 192 193 189 185 177 173 174 184 178 178 175 165 175 179 182 185 184 175 173 174 178 175 178 183 177 179 175 175 171 173 175 174 173 175 178
182 158 159 169 218 245 252 129 163 156 148 264 248 241 234 226 205 214 228 223 216 219 229 231 240 244 254 146 205 222 198 212 218 209 215 218 203 196 201 204 204 200 198 196 196 192 190 189 190 192 192 190 190 190 189 173 166 184 181 176 174 152 169 181 182 183 184 181 175 176 177 177 179 184 185 186 178 175 173 175 177 177 176 184 181 168
152 192 209 156 224 237 257 130 127 143 218 227 239 244 233 230 220 216 224 220 224 202 222 227 241 252 252 179 207 227 204 214 210 219 203 196 193 207 220 221 213 206 202 200 197 195 194 190 191 192 191 189 188 184 168 173 180 175 162 158 156 169 177 179 183 183 185 179 179 177 180 182 184 188 190 182 179 176 179 179 186 183 180 173 172 183
184 196 210 131 180 239 111 107 169 210 231 241 45 183 205 224 227 225 234 238 233 224 234 248 255 255 246 224 219 221 218 227 223 219 220 212 191 192 200 206 205 201 204 201 197 195 189 186 183 177 176 183 178 167 158 168 169 159 163 168 173 178 175 182 181 185 185 183 181 178 184 187 189 191 187 184 181 179 183 187 181 178 183 181 185 186
187 192 178 223 168 27 99 199 235 223 249 327 256 75 247 82 132 182 243 244 240 232 223 232 240 245 249 245 234 229 222 233 244 256 260 219 184 193 200 208 206 196 197 196 194 194 184 181 181 182 181 159 153 162 168 173 164 165 176 169 172 173 178 178 183 189 185 186 184 188 190 188 190 190 187 183 179 182 188 187 185 185 184 184 189 194
183 181 171 225 171 221 208 227 241 331 314 287 269 189 146 171 163 171 228 242 234 228 224 231 244 247 247 248 237 229 222 140 260 264 256 175 192 203 197 199 192 196 195 203 199 199 189 171 160 157 147 154 158 161 176 167 164 165 158 167 175 173 177 180 190 193 190 189 190 193 191 188 188 189 184 181 181 189 191 186 191 193 172 180 189 186
180 195 185 209 212 201 219 238 244 247 247 254 256 208 199 182 165 168 190 266 256 210 208 211 235 242 240 242 223 187 102 162 256 250 213 214 185 152 85 93 117 134 136 136 117 144 151 155 149 150 148 150 161 165 155 153 159 156 162 170 170 173 181 187 199 193 187 194 195 193 189 189 186 185 183 182 191 193 195 194 193 189 179 185 186 196
216 215 184 200 199 165 219 234 228 234 245 244 179 179 148 94 135 132 128 255 275 180 216 194 221 236 229 222 186 130 150 214 242 240 200 164 134 134 128 126 128 149 160 166 165 164 162 154 139 128 123 134 151 155 147 150 152 156 168 170 172 176 184 198 199 187 193 200 195 190 188 186 185 186 185 190 196 193 193 194 194 185 177 196 194 204
203 204 191 217 217 206 208 224 233 216 254 240 220 229 217 92 133 103 202 261 300 309 295 242 233 241 241 184 151 165 180 220 236 262 180 151 149 144 138 145 145 148 149 143 127 129 123 117 105 109 128 153 158 145 149 151 155 163 165 171 168 181 198 202 195 197 199 193 185 186 184 185 186 189 188 196 198 195 199 185 167 177 188 198 195 194
185 214 205 210 213 222 223 243 279 274 267 199 185 207 229 188 117 147 227 276 253 268 281 213 221 197 135 140 161 188 234 256 249 194 122 130 106 87 75 92 118 122 127 119 117 113 111 110 121 139 150 145 145 150 150 147 151 164 168 164 173 199 206 201 193 190 190 179 179 184 187 187 188 191 199 197 195 190 184 180 188 180 185 194 189 183
217 178 340 221 227 224 222 232 236 263 241 164 258 173 191 113 197 221 229 195 219 281 312 198 154 167 156 162 175 164 151 324 46 74 117 115 117 116 119 116 106 91 76 99 114 113 104 98 100 104 110 133 143 147 147 148 154 160 153 166 193 211 203 177 178 170 167 177 185 187 187 190 197 196 195 188 171 177 194 195 183 186 187 181 182 194
178 169 185 203 207 292 125 236 209 243 221 106 131 52 188 165 238 147 171 237 213 258 342 9 142 160 128 103 97 134 108 63 67 87 98 104 113 129 140 146 136 130 128 119 101 93 118 120 129 136 136 134 134 136 148 143 147 149 160 179 212 194 151 163 152 162 171 178 184 189 192 194 191 193 185 186 186 184 194 181 181 184 176 180 188 199
180 142 189 223 170 184 191 209 213 243 132 273 146 180 190 182 152 168 133 87 229 206 228 180 26 126 113 120 125 102 95 104 74 88 86 91 107 108 102 92 89 90 86 71 105 130 126 118 119 117 115 126 132 136 142 148 145 156 167 210 161 126 140 141 159 155 170 185 191 190 195 195 196 194 188 187 183 188 186 183 187 183 186 186 188 198
206 184 162 183 160 180 201 208 309 237 277 277 182 275 282 294 129 179 157 159 166 238 179 107 156 128 134 124 115 127 93 57 120 112 115 141 132 131 129 133 132 134 132 134 136 132 128 137 135 126 121 126 135 137 142 145 152 155 194 207 131 161 155 156 152 166 179 191 192 195 198 188 192 193 193 188 178 184 190 187 174 186 198 183 198 201
11 151 54 98 264 184 28 173 57 353 287 303 311 237 279 284 311 132 177 161 241 179 173 149 166 152 141 144 119 87 132 147 125 105 98 118 122 115 104 106 104 105 117 118 118 121 119 114 120 129 135 134 141 142 146 147 148 170 206 149 157 148 148 147 157 176 196 194 195 199 179 184 198 195 192 185 190 194 191 184 185 194 187 188 204 206
285 114 72 120 207 124 252 115 159 265 304 293 303 302 249 224 256 261 241 54 2 125 95 63 143 158 157 146 140 142 140 142 130 130 143 137 139 146 146 136 140 149 148 146 147 129 118 127 131 136 144 158 181 166 170 170 179 135 130 154 153 149 146 154 164 177 175 190 188 156 175 194 194 196 193 192 195 197 189 183 186 189 189 195 201 207
294 182 76 177 116 158 230 134 273 287 254 277 263 305 293 274 255 172 58 51 59 55 75 57 91 95 111 114 138 135 150 163 145 158 157 166 156 151 147 146 142 125 105 127 137 125 128 138 147 154 156 170 183 178 180 179 163 137 90 118 137 139 138 149 167 171 176 165 153 156 157 183 162 168 189 219 212 207 206 201 189 195 201 197 203 200
182 114 202 161 123 150 344 285 273 308 300 267 260 248 241 245 280 328 60 66 93 91 75 46 54 143 130 148 144 134 143 199 180 160 152 145 147 143 148 151 149 141 139 140 155 155 155 158 152 167 169 143 127 137 125 121 127 161 140 125 129 131 131 147 155 151 156 157 144 163 159 161 155 162 169 185 231 297 216 196 214 228 265 333 153 209
92 158 190 96 88 204 197 197 166 135 243 233 234 233 233 223 201 250 104 131 124 129 123 94 50 35 100 145 155 152 161 173 176 151 152 161 162 150 133 130 129 127 110 104 116 117 105 111 136 133 107 85 120 131 142 153 181 200 160 142 139 133 135 149 149 153 174 166 166 167 161 172 175 170 173 177 192 214 257 228 198 198 202 246 250 224
154 194 149 168 177 220 218 172 187 168 190 216 210 218 212 199 170 205 223 197 175 172 158 128 116 94 89 56 92 155 157 162 177 156 143 152 168 167 158 145 140 138 136 136 127 124 115 110 108 112 101 112 111 112 109 89 50 47 31 50 138 140 148 146 155 172 177 165 185 181 180 174 179 186 179 183 179 192 210 263 302 262 236 226 224 235